Chippewa, MI

9:59 PM EDT on March 28, 2017 (GMT -0400)
Chippewa County International

Weather History for KCIU - November, 2014

Change the Weather History Date:

Wednesday, November 12, 2014

  Actual Average Record
Temperature  
Mean Temperature 24 °F -  
Max Temperature 30 °F 38 °F 53 °F (2005)
Min Temperature 19 °F 22 °F 10 °F (1980)
Degree Days  
Heating Degree Days 40    
Moisture  
Dew Point 22 °F    
Average Humidity 95    
Maximum Humidity 100    
Minimum Humidity 80    
Precipitation  
Precipitation 0.00 in - - ()
Sea Level Pressure  
Sea Level Pressure 29.94 in    
Wind  
Wind Speed 11 mph (West)    
Max Wind Speed 20 mph    
Max Gust Speed 28 mph    
Visibility 8 miles    
Events      
Averages and records for this station are not official NWS values.
T = Trace of Precipitation, MM = Missing Value Source: NWS Daily Summary

Daily Weather History Graph

Daily Weather History Graph

Search for Another Location

Airport or City:

Trip Planner

Search our weather history database for the weather conditions in past years. The results will help you decide how hot, cold, wet, or windy it might be!

Date:

Astronomy

Nov. 12, 2014 Rise Set
Actual Time 7:34 AM EST 5:08 PM EST
Civil Twilight 7:02 AM EST 5:41 PM EST
Nautical Twilight 6:26 AM EST 6:17 PM EST
Astronomical Twilight 5:50 AM EST 6:52 PM EST
Moon 10:30 PM EST (11/12) 12:18 PM EST (11/12)
Length of Visible Light 10h 38m
Length of Day
9h 33m
Waning Gibbous, 68% of the Moon is Illuminated
Nov 12
Waning Gibbous
Nov 14
Last Quarter
Nov 22
New
Nov 29
First Quarter
Dec 6
Full

Hourly Weather History & Observations

Time (EST) Temp. Windchill Dew Point Humidity Pressure Visibility Wind Dir Wind Speed Gust Speed Precip Events Conditions
12:15 AM 23.0 °F 15.8 °F 23.0 °F 100% 29.74 in 7.0 mi NNW 5.8 mph - N/A   Overcast
12:35 AM 23.0 °F 17.0 °F 23.0 °F 100% 29.74 in 4.0 mi NW 4.6 mph - N/A   Overcast
12:55 AM 24.8 °F 14.6 °F 24.8 °F 100% 29.75 in 3.0 mi WNW 10.4 mph - N/A   Overcast
1:15 AM 24.8 °F 13.4 °F 23.0 °F 93% 29.75 in 2.0 mi WNW 12.7 mph - N/A   Overcast
1:35 AM 24.8 °F 12.4 °F 23.0 °F 93% 29.76 in 2.5 mi WNW 15.0 mph 21.9 mph N/A   Overcast
1:55 AM 24.8 °F 12.4 °F 24.8 °F 100% 29.77 in 3.0 mi West 15.0 mph 20.7 mph N/A   Overcast
2:15 AM 23.0 °F 10.6 °F 23.0 °F 100% 29.78 in 1.8 mi West 13.8 mph 21.9 mph N/A   Overcast
2:35 AM 23.0 °F 10.6 °F 23.0 °F 100% 29.80 in 2.5 mi West 13.8 mph 20.7 mph N/A   Overcast
2:55 AM 23.0 °F 9.6 °F 23.0 °F 100% 29.81 in 7.0 mi West 16.1 mph 20.7 mph N/A   Overcast
3:15 AM 21.2 °F 8.9 °F 21.2 °F 100% 29.82 in 3.0 mi West 12.7 mph 19.6 mph N/A   Overcast
3:35 AM 21.2 °F 10.1 °F 19.4 °F 93% 29.83 in 5.0 mi West 10.4 mph - N/A   Overcast
3:55 AM 21.2 °F 8.9 °F 19.4 °F 93% 29.83 in 8.0 mi West 12.7 mph 18.4 mph N/A   Overcast
4:15 AM 21.2 °F 10.1 °F 19.4 °F 93% 29.84 in 7.0 mi West 10.4 mph 17.3 mph N/A   Overcast
4:35 AM 21.2 °F 9.5 °F 21.2 °F 100% 29.84 in 8.0 mi West 11.5 mph - N/A   Mostly Cloudy
4:55 AM 21.2 °F 9.5 °F 21.2 °F 100% 29.86 in 10.0 mi West 11.5 mph - N/A   Overcast
5:15 AM 21.2 °F 9.5 °F 21.2 °F 100% 29.86 in 10.0 mi West 11.5 mph - N/A   Mostly Cloudy
5:35 AM 21.2 °F 8.9 °F 21.2 °F 100% 29.87 in 10.0 mi West 12.7 mph 19.6 mph N/A   Overcast
5:55 AM 21.2 °F 7.8 °F 21.2 °F 100% 29.87 in 10.0 mi West 15.0 mph - N/A   Overcast
6:15 AM 21.2 °F 7.3 °F 21.2 °F 100% 29.88 in 10.0 mi West 16.1 mph 23.0 mph N/A   Mostly Cloudy
6:35 AM 21.2 °F 10.1 °F 21.2 °F 100% 29.89 in 10.0 mi West 10.4 mph - N/A   Mostly Cloudy
6:55 AM 21.2 °F 10.9 °F 21.2 °F 100% 29.90 in 10.0 mi West 9.2 mph 16.1 mph N/A   Overcast
7:15 AM 21.2 °F 10.9 °F 21.2 °F 100% 29.91 in 10.0 mi West 9.2 mph - N/A   Overcast
7:35 AM 21.2 °F 10.1 °F 19.4 °F 93% 29.92 in 10.0 mi West 10.4 mph - N/A   Overcast
7:55 AM 21.2 °F 10.9 °F 21.2 °F 100% 29.92 in 10.0 mi West 9.2 mph - N/A   Overcast
8:15 AM 21.2 °F 10.1 °F 21.2 °F 100% 29.93 in 8.0 mi West 10.4 mph - N/A   Overcast
8:35 AM 21.2 °F 10.1 °F 21.2 °F 100% 29.93 in 9.0 mi West 10.4 mph - N/A   Overcast
8:55 AM 23.0 °F 13.1 °F 23.0 °F 100% 29.94 in 10.0 mi West 9.2 mph - N/A   Overcast
9:15 AM 24.8 °F 14.0 °F 23.0 °F 93% 29.94 in 10.0 mi West 11.5 mph 16.1 mph N/A   Overcast
9:35 AM 24.8 °F 14.6 °F 23.0 °F 93% 29.95 in 10.0 mi West 10.4 mph 18.4 mph N/A   Overcast
9:55 AM 24.8 °F 14.6 °F 23.0 °F 93% 29.95 in 4.0 mi West 10.4 mph - N/A   Overcast
10:15 AM 24.8 °F 14.6 °F 24.8 °F 100% 29.96 in 8.0 mi West 10.4 mph - N/A   Overcast
10:35 AM 26.6 °F 15.2 °F 24.8 °F 93% 29.96 in 10.0 mi West 13.8 mph 18.4 mph N/A   Overcast
10:55 AM 26.6 °F 15.7 °F 23.0 °F 86% 29.97 in 10.0 mi West 12.7 mph 26.5 mph N/A   Overcast
11:15 AM 26.6 °F 13.8 °F 23.0 °F 86% 29.96 in 10.0 mi West 17.3 mph 24.2 mph N/A   Overcast
11:35 AM 28.4 °F 16.2 °F 24.8 °F 86% 29.96 in 10.0 mi West 17.3 mph 21.9 mph N/A   Overcast
11:55 AM 26.6 °F 13.4 °F 23.0 °F 86% 29.96 in 10.0 mi West 18.4 mph 24.2 mph N/A   Overcast
12:15 PM 28.4 °F 17.5 °F 24.8 °F 86% 29.96 in 10.0 mi West 13.8 mph 24.2 mph N/A   Overcast
12:35 PM 28.4 °F 16.6 °F 23.0 °F 80% 29.96 in 10.0 mi West 16.1 mph 27.6 mph N/A   Mostly Cloudy
12:55 PM 28.4 °F 16.2 °F 24.8 °F 86% 29.96 in 10.0 mi West 17.3 mph 26.5 mph N/A   Scattered Clouds
1:15 PM 30.2 °F 19.3 °F 24.8 °F 80% 29.96 in 10.0 mi West 15.0 mph 26.5 mph N/A   Mostly Cloudy
1:35 PM 28.4 °F 15.4 °F 23.0 °F 80% 29.96 in 4.0 mi West 19.6 mph 27.6 mph N/A   Mostly Cloudy
1:55 PM 26.6 °F 15.7 °F 24.8 °F 93% 29.97 in 10.0 mi West 12.7 mph 20.7 mph N/A   Overcast
2:15 PM 28.4 °F 17.5 °F 24.8 °F 86% 29.98 in 7.0 mi West 13.8 mph 21.9 mph N/A   Overcast
2:35 PM 28.4 °F 18.5 °F 24.8 °F 86% 29.98 in 4.0 mi West 11.5 mph 18.4 mph N/A   Overcast
2:55 PM 26.6 °F 13.4 °F 24.8 °F 93% 29.99 in 4.0 mi West 18.4 mph 24.2 mph N/A   Overcast
3:15 PM 26.6 °F 16.2 °F 24.8 °F 93% 30.00 in 10.0 mi West 11.5 mph 19.6 mph N/A   Mostly Cloudy
3:35 PM 26.6 °F 16.2 °F 24.8 °F 93% 30.00 in 10.0 mi West 11.5 mph - N/A   Mostly Cloudy
3:55 PM 26.6 °F 16.8 °F 24.8 °F 93% 30.01 in 9.0 mi West 10.4 mph - N/A   Overcast
4:15 PM 26.6 °F 16.2 °F 24.8 °F 93% 30.01 in 2.0 mi West 11.5 mph 17.3 mph N/A   Overcast
4:35 PM 26.6 °F 15.7 °F 24.8 °F 93% 30.01 in 10.0 mi WSW 12.7 mph 18.4 mph N/A   Scattered Clouds
4:55 PM 24.8 °F 12.9 °F 21.2 °F 86% 30.02 in 10.0 mi West 13.8 mph 17.3 mph N/A   Scattered Clouds
5:15 PM 24.8 °F 14.6 °F 21.2 °F 86% 30.03 in 10.0 mi West 10.4 mph 16.1 mph N/A   Clear
5:35 PM 24.8 °F 16.1 °F 23.0 °F 93% 30.03 in 10.0 mi West 8.1 mph - N/A   Mostly Cloudy
5:55 PM 24.8 °F 14.0 °F 24.8 °F 100% 30.03 in 3.0 mi West 11.5 mph - N/A   Mostly Cloudy
6:15 PM 23.0 °F 13.9 °F 23.0 °F 100% 30.03 in 10.0 mi West 8.1 mph - N/A   Partly Cloudy
6:35 PM 23.0 °F 12.4 °F 21.2 °F 93% 30.03 in 10.0 mi West 10.4 mph - N/A   Clear
6:55 PM 21.2 °F 10.9 °F 21.2 °F 100% 30.04 in 10.0 mi West 9.2 mph 16.1 mph N/A   Clear
7:15 PM 21.2 °F 10.9 °F 21.2 °F 100% 30.03 in 10.0 mi West 9.2 mph - N/A   Clear
7:35 PM 21.2 °F 9.5 °F 19.4 °F 93% 30.04 in 10.0 mi West 11.5 mph - N/A   Clear
7:55 PM 21.2 °F 10.9 °F 21.2 °F 100% 30.04 in 10.0 mi West 9.2 mph - N/A   Clear
8:15 PM 21.2 °F 10.1 °F 21.2 °F 100% 30.04 in 10.0 mi West 10.4 mph - N/A   Clear
8:35 PM 21.2 °F 10.1 °F 21.2 °F 100% 30.04 in 10.0 mi WSW 10.4 mph - N/A   Scattered Clouds
8:55 PM 21.2 °F 10.9 °F 21.2 °F 100% 30.04 in 8.0 mi WSW 9.2 mph - N/A   Partly Cloudy
9:15 PM 21.2 °F 10.9 °F 21.2 °F 100% 30.04 in 10.0 mi West 9.2 mph - N/A   Clear
9:35 PM 21.2 °F 10.9 °F 21.2 °F 100% 30.04 in 10.0 mi WSW 9.2 mph - N/A   Clear
9:55 PM 21.2 °F 11.7 °F 21.2 °F 100% 30.04 in 10.0 mi WSW 8.1 mph - N/A   Clear
10:15 PM 19.4 °F 10.4 °F 19.4 °F 100% 30.04 in 10.0 mi WSW 6.9 mph - N/A   Clear
10:35 PM 21.2 °F 10.1 °F 21.2 °F 100% 30.04 in 10.0 mi WSW 10.4 mph - N/A   Clear
10:55 PM 19.4 °F 8.6 °F 19.4 °F 100% 30.03 in 10.0 mi West 9.2 mph - N/A   Clear
11:15 PM 19.4 °F 9.5 °F 19.4 °F 100% 30.04 in 10.0 mi WSW 8.1 mph - N/A   Clear
11:35 PM 19.4 °F 8.6 °F 19.4 °F 100% 30.04 in 10.0 mi WSW 9.2 mph - N/A   Clear
11:55 PM 19.4 °F 10.4 °F 19.4 °F 100% 30.04 in 10.0 mi WSW 6.9 mph - N/A   Clear